Find Starlink 11325

NORAD ID: 61538 Int'l Des: 2024-184 Owner: SPXS Country: US Constellation: starlink operational
別名: STARLINK-11325 [DTC] celestrak
LEOCIRCULAR

現在のビュー

3D地球を読み込み中...

About Starlink 11325

Starlink 11325 (NORAD 61538) is a starlink constellation satellite (v2 mini d2c) launched Oct 15, 2024 by SPXS of US. It operates in LEO, CIRCULAR orbit with a mass of 960.00 kg.

次回通過

Passes for default location (London). Set your location on the main map for personalized predictions.

高度履歴

Loading altitude history...

軌道要素

1 61538U 24184G 26230.10971771 .00000713 00000-0 10737-4 0 9991
2 61538 53.1593 160.2661 0000975 97.0473 263.0656 15.69717441105777
Epoch: Aug 18, 2026 • Age: 21 hours

現在のステータス

高度 378.0 km
遠地点 / 近地点 N/A
速度 7.68 km/s
衛星直下点 -51.10°S, 125.61°E
打ち上げ日 Oct 15, 2024
運用期間 1.8 years
タイプ internet

技術仕様

分類 Payload
質量 960.00 kg
乾燥質量 910.00 kg
総質量 960.00 kg
長さ 0.30 m
直径 4.10 m
スパン 29.00 m
形状 Box + pan
製造者 SPXS
バスタイプ Starlink V2MD
フェーズステータス In Orbit
所有者/国 SPXS/US

Most Searched